STARLINK-34057, 63814

Orbit data source: Space-Track

STARLINK-34057, 63814 is a payload satellite owned by SpaceX/Seattle (US) in LEO that was launched on Sun, 04 May 2025 UTC via an FALCON 9 launch vehicle from the Air Force Eastern Test Range (AFETR). Payload-class satellites include a variety of spacecraft equipped with specific instruments for various scientific and technological missions. These include communications satellites like Starlink; space stations such as the ISS; scientific satellites like the Hubble; Earth observation satellites from companies like Planet Labs, Umbra, and HawkEye 360; GPS; miniature CubeSats for education and research; and military/defense satellites.

Loading next visibility...
Identifier
63814, 2025-092L
Orbit
LEO
Country
Flag of USUS
Related business
Manufacturer
SpaceX/Seattle
Mission
Operational Commercial Communications
Bus & Motor
STARLINK V2MO, Unknown motor
Mass
575 kg wet, ~530 kg dry
Launch date (UTC)
2025-05-04 (11 months ago)
Launch vehicle
FALCON 9
Launch site
Air Force Eastern Test Range (AFETR)
Object type
Payload
Rocket body
Debris
Shape & HBR
Box + 2 Pan, 17.7 m
Radar Cross Section
36.964 m², Large (>1 m²)

Expand to show TLE details & history
Last TLE update: 20 hours ago

TLE from 20 hours ago
0 STARLINK-34057
1 63814U 25092L   26105.99677037  .00011144  00000-0  41371-3 0  9992
2 63814  43.0015 321.5633 0001914 258.8977 101.1659 15.27591690 54323
Epoch: 2026-04-15T23:55Z
TLE epoch observation values (Epoch: 2026-04-15T23:55:20.959Z)
Latitude
-0.00007°
Longitude
118.57524°
Altitude
483.044 km
Speed
7.626 km/s
True Right ascension
21h 26m 15s
True Declination
0° 00' 00"
Sunlit
Object was in daylight at epoch
Visualization orbit readout
Latitude
Unknown
Longitude
Unknown
Altitude
Unknown
Speed
Unknown
Apparent Right ascension
Unknown
Apparent Declination
Unknown
Sunlit
N/A
Visualization observer readout
Local Sidereal Time
02:09:45
Azimuth
Unknown
Elevation
Unknown
Doppler factor
Unknown
Orbital elements
Apogee altitude
486.273 km
Perigee altitude
483.645 km
Semi-major axis
6,863.096 km
Eccentricity
0.00019
Inclination
43.0015°
RAAN
321.5633°
Arg. of periapsis
258.8977°
True anomaly
101.18742°
Mean anomaly
101.1659°
Eccentric anomaly
101.17666°
Mean motion
3.81736 °/min
Orbital period
94.31 mins
BSTAR
0.00041371
Loading maneuver chart data...
Computing Atmospheric mass density...
Loading historical data...
Loading historical data...
Loading historical data...
Loading historical data...
Loading historical data...
Loading historical data...
Loading historical data...

Documentation

Showing up to 5 results
|